Location: Chervonnoye
(48.6000°N, 34.4000°E)
Time: 21:20:23
(UTC+00:00)

RS-44 - Pass Details

Date: 04 December 2021
Orbit: 1175 x 1510 km, 82.5° (Epoch: 19 January)

Event Time Altitude Azimuth Distance (km) Brightness Sun altitude
Rises 18:09:14 0° 213° (SSW) 4,104 ? -42.1°
Reaches altitude 10° 18:12:07 10° 221° (SW) 3,119 ? -42.6°
Enters shadow 18:15:20 26° 238° (WSW) 2,149 ? -43.1°
Exits shadow 18:27:09 - 4° (N) 3,634 ? -45.0°
Sets 18:28:32 0° 7° (N) 4,109 ? -45.2°
